Hourly Data Report for July 08, 2020

All times are specified in Local Standard Time (LST). Add 1 hour to adjust for Daylight Saving Time where and when it is observed.

TORONTO INTL A
ONTARIO
Current Station Operator: NAVCAN

43°40'36.000" N
79°37'50.000" W
173.40 m
6158731
71624
YYZ

Download Data

Hourly Data (July 2020)
Hourly Data Report for July 8, 2020
TIME Temp Definition
°C
Dew Point Definition
°C
Rel Hum Definition
%
Wind Dir Definition
10's deg

Wind Spd Definition
km/h
Visibility Definition
km
Stn Press Definition
kPa
Hmdx Definition


Wind Chill Definition


Weather Definition


00:00 27.1 19.7 64 33 11 24.1 99.28 34   LegendNANA
01:00 26.1 20.2 70 31 11 24.1 99.26 34   Clear
02:00 25.6 20.0 71 32 8 24.1 99.26 33   LegendNANA
03:00 25.5 20.5 73 36 2 24.1 99.27 33   Rain
04:00 23.1 20.1 83 26 10 24.1 99.30 31   Mainly Clear
05:00 23.6 19.7 78 24 5 24.1 99.32 31   LegendNANA
06:00 24.8 19.8 73 27 7 24.1 99.33 32   LegendNANA
07:00 27.0 19.1 61 24 5 24.1 99.34 34   Mainly Clear
08:00 28.3 18.6 55 19 7 24.1 99.34 35   LegendNANA
09:00 29.9 19.0 51 30 3 24.1 99.32 37   LegendNANA
10:00 30.6 18.8 49 21 11 24.1 99.29 37   Mainly Clear
11:00 31.2 19.1 48 25 14 24.1 99.35 38   LegendNANA
12:00 31.3 20.2 51 14 12 24.1 99.30 39   LegendNANA
13:00 32.1 20.1 49 16 22 24.1 99.22 40   Mostly Cloudy
14:00 23.8 21.1 85 5 30 9.7 99.27 32   Thunderstorms,Moderate Rain Showers
15:00 26.5 21.9 75 13 11 24.1 99.19 36   LegendNANA
16:00 30.2 20.4 55 17 9 24.1 99.16 38   Mostly Cloudy
17:00 31.4 20.0 50 15 9 24.1 99.13 39   LegendNANA
18:00 30.3 18.1 47 22 12 24.1 99.10 36   LegendNANA
19:00 29.9 19.8 54 28 8 24.1 99.07 37   Mainly Clear
20:00 28.4 20.0 60 25 9 24.1 99.10 36   LegendNANA
21:00 28.0 20.6 64 29 7 24.1 99.20 36   LegendNANA
22:00 27.2 18.6 59 35 16 24.1 99.27 34   Clear
23:00 25.7 18.5 64 35 6 24.1 99.26 32   LegendNANA

Notes on Data Quality.

Legend

  • E = Estimated
  • M = Missing
  • NA = Not Available*
  • [empty] = Indicates an unobserved value
Date modified: